Location: Chillicothe
(39.7950°N, 93.5520°W)
Time: 12:14:50
(UTC-06:00)

BEESAT - Pass Details

Date: 20 November 2019
Orbit: 700 x 709 km, 98.6° (Epoch: 05 December)

Event Time Altitude Azimuth Distance (km) Brightness Sun altitude
Rises 05:01:07 0° 171° (S) 3,074 ? -23.5°
Reaches altitude 10° 05:03:22 10° 174° (S) 2,159 ? -23.1°
Maximum altitude 05:08:05 69° 258° (WSW) 752 ? -22.2°
Enters shadow 05:09:29 44° 325° (NW) 964 ? -21.9°
